Regional Weather Roundup
Issued by NWS

Home | Current Version | Previous Version | Text Only | Print | Product List | Glossary Off
Versions: 1 2 3 4 5 6 7 8 9 10 11 12 13 14 15 16 17 18 19 20 21 22 23 24 25 26 27 28 29 30 31 32 33 34 35 36 37 38 39 40 41 42 43 44 45 46 47 48 49 50

000
ASUS45 KBOU 251807
RWRCO

WEATHER ROUNDUP FOR COLORADO
NATIONAL WEATHER SERVICE DENVER/BOULDER CO
1200 PM MDT MON MAY 25 2015

NOTE: "FAIR" INDICATES FEW OR NO CLOUDS BELOW 12000 FEET WITH NO
SIGNIFICANT WEATHER AND/OR OBSTRUCTIONS TO VISIBILITY.

COZ001>005-013-030-031-251900-
...NORTHWEST COLORADO...

CITY           SKY/WX    TMP DP  RH WIND       PRES   REMARKS
CRAIG          CLOUDY    52  41  66 W8        30.02S
HAYDEN         PTSUNNY   52  37  58 W8        30.02F
MEEKER         CLOUDY    54  42  64 VRB3      30.03R
MOUNT WERNER   NOT AVBL
STEAMBOAT SPGS CLOUDY    48  37  65 W5        30.03S
WALDEN         CLOUDY    50  32  50 W8        30.02S
$$

COZ006>008-011-251900-
...WEST CENTRAL VALLEYS...

CITY           SKY/WX    TMP DP  RH WIND       PRES   REMARKS
GRAND JUNCTION MOSUNNY   57  45  64 S5        29.99S
MONTROSE       PTSUNNY   58  45  62 NW7       30.04S
EAGLE          PTSUNNY   55  36  47 W6        30.02F
RIFLE          PTSUNNY   56  42  59 CALM      30.02F
DELTA          MOSUNNY   60  44  57 MISG      30.02S
NUCLA          MOSUNNY   59  43  55 NW5       30.04S
$$

COZ017>023-064>068-251900-
...SOUTHWEST COLORADO...

CITY           SKY/WX    TMP DP  RH WIND       PRES   REMARKS
DURANGO        PTSUNNY   54  45  71 S8        30.04S
CORTEZ         MOSUNNY   58  44  60 SW12      30.03F
PAGOSA SPRINGS CLOUDY    51  38  60 CALM      30.08F
TELLURIDE      LGT RAIN  40  37  92 S8        30.14S
WOLF CREEK PAS NOT AVBL
$$

COZ009-010-012-014-032>034-037-058>063-251900-
...CENTRAL COLORADO...

CITY           SKY/WX    TMP DP  RH WIND       PRES   REMARKS
ASPEN          LGT RAIN  44  36  73 CALM      30.07R
BUENA VISTA    PTSUNNY   55  28  35 CALM      30.01S
COPPER MTN     CLOUDY    36  27  69 W17       30.16R
BERTHOUD PASS  CLOUDY    25  18  74 NW16      30.16R WCI  12
COTTONWOOD PAS CLOUDY    50  30  46 CALM      30.08S
GUNNISON       PTSUNNY   46  37  71 E7        30.08S
KREMMLING      PTSUNNY   50  37  62 SW7       30.04S
LEADVILLE      MOSUNNY   45  29  53 W15       30.07S
MONARCH PASS   CLOUDY    32  30  93 SW18G25   30.27R WCI  20
SALIDA         MOSUNNY   60  35  39 SW15G21   30.07F
SUNLIGHT       LGT RAIN  36  34  93 CALM        N/A  VSB 3/4
WILKERSON PASS PTSUNNY   37  28  70 W6        30.15S
$$

COZ069>075-251900-
...SAN LUIS VALLEY/SANGRE DE CRISTO MOUNTAINS...

CITY           SKY/WX    TMP DP  RH WIND       PRES   REMARKS
ALAMOSA        MOSUNNY   57  30  35 VRB6      30.02F
LA VETA PASS   MOSUNNY  N/A N/A N/A MISG      30.09R
SAGUACHE       NOT AVBL
$$

COZ035-036-038>040-251900-
...NORTHERN COLORADO FRONT RANGE...

CITY           SKY/WX    TMP DP  RH WIND       PRES   REMARKS
DENVER INTL AP PTSUNNY   61  42  49 VRB6      29.92S
DMNS CITY PARK   N/A     63  38  39 N8G14     29.90S
AURORA         NOT AVBL
FRONT RANGE AP NOT AVBL
ERIE MUNI ARPT MOSUNNY   62  43  49 E6        29.90F
BOULDER MUN AP MOSUNNY   59  43  55 N5        29.91S
CENTENNIAL     PTSUNNY   61  37  41 E6        29.92S
BROOMFIELD     PTSUNNY   59  39  47 N5        29.92S
FORT COLLINS   PTSUNNY   59  45  58 SE7       29.92S
LONGMONT       PTSUNNY   64  45  49 NE3       29.92S
$$

COZ041-046-047-076>085-087-088-251900-
...PIKES PEAK/PALMER DIVIDE AND SOUTHERN FOOTHILLS...

CITY           SKY/WX    TMP DP  RH WIND       PRES   REMARKS
COLO. SPRINGS  MOSUNNY   59  39  47 W8        29.94F
A. F. ACADEMY  NOT AVBL
ELLICOTT       NOT AVBL
FALCON         MOSUNNY   58  33  39 N3        29.96F
FORT CARSON    NOT AVBL
LIMON          PTSUNNY   59  43  55 N12       29.92S
MONUMENT HILL  NOT AVBL
TRINIDAD       PTSUNNY   63  43  48 E8        29.94R
$$

COZ042>045-048>051-090-091-251900-
...NORTHEAST COLORADO...

CITY           SKY/WX    TMP DP  RH WIND       PRES   REMARKS
GREELEY ARPT   PTSUNNY   61  39  44 W7        29.91S
AKRON          PTSUNNY   56  46  69 NW17      29.89S
BURLINGTON     PTSUNNY   63  46  54 W6        29.90R
WRAY           PTSUNNY   66  48  52 W18       29.84F
STERLING       CLOUDY    55  48  76 NW13      29.88S
HOLYOKE        NOT AVBL
FORT MORGAN    CLOUDY    54  46  75 N23       29.91R
$$

COZ086-089-092>099-251900-
...SOUTHEAST COLORADO...

CITY           SKY/WX    TMP DP  RH WIND       PRES   REMARKS
PUEBLO         MOSUNNY   65  43  44 N12G17    29.88F
LA JUNTA       PTSUNNY   63  48  58 E9        29.90R
LAMAR          PTSUNNY   66  48  52 MISG      29.87S
SPRINGFIELD      N/A     68  42  38 NW3       29.90R
$$



USA.gov is the U.S. government's official web portal to all federal, state and local government web resources and services.